Weather History for Rolla, MO

Change the Weather History Date:

Monday, March 4, 2013

  Actual Average Record
Temperature  
Mean Temperature 45 °F 41 °F  
Max Temperature 56 °F 52 °F 77 °F (1961)
Min Temperature 34 °F 31 °F -3 °F (1978)
Degree Days  
Heating Degree Days 20 24  
Month to date heating degree days 139 98  
Since 1 July heating degree days 3725 3888  
Cooling Degree Days 0 0  
Month to date cooling degree days 0 0  
Year to date cooling degree days 0 0  
Moisture  
Dew Point 33 °F    
Average Humidity 69    
Maximum Humidity 86    
Minimum Humidity 51    
Precipitation  
Precipitation 0.00 in 0.09 in 2.65 in (1963)
Month to date precipitation 0.02 0.33  
Year to date precipitation 4.73 4.43  
Sea Level Pressure  
Sea Level Pressure 29.78 in    
Wind  
Wind Speed 12 mph (SE)    
Max Wind Speed 17 mph    
Max Gust Speed 24 mph    
Visibility 10 miles    
Events      
T = Trace of Precipitation, MM = Missing Value Source: NWS Daily Summary

Daily Weather History Graph

Daily Weather History Graph

Search for Another Location

Airport:

Trip Planner

Search our weather history database for the weather conditions in past years. The results will help you decide how hot, cold, wet, or windy it might be!

Date:

Astronomy

Mar. 04, 2013 Rise Set
Actual Time 6:34 AM CST 6:03 PM CST
Civil Twilight 6:07 AM CST 6:30 PM CST
Nautical Twilight 5:37 AM CST 7:00 PM CST
Astronomical Twilight 5:06 AM CST 7:31 PM CST
Moon 12:40 AM CST (3/4) 10:49 AM CST (3/4)
Length of Visible Light 12h 22m
Length of Day
11h 29m
Waning Gibbous, 52% of the Moon is Illuminated
Mar 4
Waning Gibbous
Mar 4
Last Quarter
Mar 11
New
Mar 19
First Quarter
Mar 27
Full

Hourly Weather History & Observations

Time (CST) Temp. Windchill Dew Point Humidity Pressure Visibility Wind Dir Wind Speed Gust Speed Precip Events Conditions
12:53 AM 35.1 °F 26.4 °F 25.0 °F 67% 29.93 in 10.0 mi SE 12.7 mph - N/A   Clear
1:53 AM 34.0 °F 25.0 °F 24.1 °F 67% 29.90 in 10.0 mi SE 12.7 mph - N/A   Clear
2:53 AM 35.1 °F 25.5 °F 24.1 °F 64% 29.86 in 10.0 mi SE 15.0 mph - N/A   Clear
3:53 AM 35.1 °F 24.8 °F 25.0 °F 67% 29.83 in 10.0 mi SE 17.3 mph - N/A   Clear
4:53 AM 35.1 °F 26.4 °F 25.0 °F 67% 29.82 in 10.0 mi SE 12.7 mph - N/A   Clear
5:53 AM 35.1 °F 25.5 °F 26.1 °F 70% 29.82 in 10.0 mi SE 15.0 mph - N/A   Clear
6:53 AM 35.1 °F 25.5 °F 25.0 °F 67% 29.82 in 10.0 mi SE 15.0 mph - N/A   Clear
7:53 AM 37.0 °F 28.5 °F 26.1 °F 65% 29.81 in 10.0 mi SE 13.8 mph - N/A   Clear
8:53 AM 39.9 °F 31.4 °F 28.0 °F 63% 29.79 in 10.0 mi SSE 16.1 mph - N/A   Clear
9:53 AM 43.0 °F 35.1 °F 30.0 °F 60% 29.78 in 10.0 mi SSE 17.3 mph 24.2 mph N/A   Clear
10:53 AM 45.0 °F 37.9 °F 32.0 °F 60% 29.75 in 10.0 mi SSE 16.1 mph 23.0 mph N/A   Clear
11:53 AM 48.0 °F - 35.1 °F 61% 29.74 in 10.0 mi SSE 13.8 mph - N/A   Clear
12:53 PM 50.0 °F - 35.1 °F 57% 29.71 in 10.0 mi SE 10.4 mph - N/A   Clear
1:53 PM 55.0 °F - 37.9 °F 53% 29.68 in 10.0 mi Variable 5.8 mph - N/A   Clear
2:53 PM 55.0 °F - 37.9 °F 53% 29.68 in 10.0 mi SE 11.5 mph - N/A   Clear
3:53 PM 55.0 °F - 39.0 °F 55% 29.68 in 10.0 mi SSE 8.1 mph - N/A   Clear
4:53 PM 53.1 °F - 39.0 °F 59% 29.70 in 10.0 mi SSE 10.4 mph - N/A   Mostly Cloudy
5:53 PM 51.1 °F - 39.0 °F 63% 29.73 in 10.0 mi SSE 10.4 mph - N/A   Overcast
6:53 PM 46.9 °F - 37.9 °F 71% 29.75 in 10.0 mi SSE 9.2 mph - N/A   Clear
7:53 PM 44.1 °F 39.5 °F 37.9 °F 79% 29.75 in 10.0 mi SE 8.1 mph - N/A   Clear
8:53 PM 43.0 °F 40.3 °F 37.9 °F 82% 29.76 in 10.0 mi SE 4.6 mph - N/A   Clear
9:53 PM 42.1 °F 39.2 °F 37.9 °F 85% 29.78 in 10.0 mi SSE 4.6 mph - N/A   Mostly Cloudy
10:53 PM 41.0 °F 39.0 °F 37.0 °F 86% 29.78 in 10.0 mi NNE 3.5 mph - N/A   Mostly Cloudy
11:53 PM 42.1 °F - 39.0 °F 89% 29.78 in 10.0 mi Calm Calm - N/A   Overcast